GFSCGP_sfc_rhum_000.txt.gz
RH
47 46 43 30 37 31 34 36 37 33 27 37 26 25 23 23 28 22 20 21 22 20 19 19 24 28 38 42 39 35 38 44 55 60 63 64 59 64 68 65 59 58 62 63
53 53 35 37 38 41 45 41 35 31 30 38 35 32 25 24 22 21 20 18 18 19 18 17 25 33 42 38 38 39 37 41 47 49 49 57 49 61 53 69 64 56 63 62
39 32 41 41 44 39 48 48 36 38 39 41 41 33 37 29 30 24 23 20 24 23 20 18 27 32 40 46 43 38 37 39 42 46 51 65 64 69 74 77 66 60 58 62
50 43 38 54 44 40 36 37 38 40 48 45 42 37 30 25 22 21 19 22 24 24 26 27 29 34 35 37 46 42 42 40 40 44 48 45 48 48 52 47 53 57 54 58
37 46 51 50 42 41 39 36 40 49 53 60 56 51 48 32 26 22 21 21 24 22 24 24 24 26 33 40 49 48 44 43 40 43 44 43 42 43 60 62 60 60 57 57
47 47 39 36 42 41 42 45 51 64 54 64 45 42 25 30 27 30 18 14 19 21 24 26 29 32 36 51 55 51 48 47 45 45 44 41 41 57 57 62 60 63 60 61
45 42 46 39 47 54 46 50 62 66 83 61 51 53 24 21 19 21 20 20 22 27 28 29 33 37 40 50 53 52 53 52 50 47 46 44 43 49 44 51 51 58 59 56
54 60 41 41 37 38 50 42 68 70 72 48 66 54 34 23 22 23 25 27 29 28 29 31 37 44 46 48 53 48 52 53 52 50 48 50 48 47 44 49 50 53 52 50
53 52 44 43 40 34 44 49 43 62 63 77 43 39 28 26 27 28 30 33 34 31 31 28 35 43 48 51 52 51 53 53 54 52 53 52 50 49 48 53 54 52 51 49
42 48 44 42 47 46 38 42 56 69 76 75 51 42 40 28 22 26 29 36 42 41 34 30 32 42 48 53 54 53 52 52 56 54 48 47 47 45 48 52 51 54 52 53
41 60 63 71 57 48 61 51 51 50 63 64 68 47 28 24 23 35 45 46 45 53 60 59 55 54 53 54 55 57 56 56 58 60 55 58 60 54 53 54 52 51 54 54
48 77 92 67 65 50 44 48 49 61 61 57 56 58 33 33 34 55 78 79 74 66 58 60 61 62 60 62 66 60 57 60 59 59 58 63 58 60 57 53 52 54 54 55
78 98 98 88 63 87 94 81 70 73 98 96 97 82 38 43 74 73 65 50 48 44 46 49 51 55 56 58 60 58 59 55 59 55 62 61 59 62 55 49 50 53 53 54
81 96 90 91 69 75 83 82 85 93 98 89 90 77 59 85 84 78 55 37 35 36 41 46 51 56 59 59 61 60 57 54 60 63 65 63 64 58 52 50 51 53 53 54
86 94 81 74 87 99 98 96 83 94 80 94 78 81 86 91 87 78 66 50 44 41 50 60 64 66 74 66 64 62 62 65 65 66 63 63 64 65 60 61 61 61 59 53
81 98 95 92 70 65 74 77 75 72 69 75 78 75 78 70 57 52 54 68 50 52 59 66 59 75 64 57 66 67 70 76 74 74 73 67 73 72 75 68 67 68 62 62
88 94 92 89 69 78 83 67 67 60 46 79 80 91 92 78 50 33 41 72 48 73 77 77 64 60 60 61 70 69 78 85 83 81 78 78 75 76 75 79 80 72 67 63
81 85 94 90 85 91 59 78 82 89 90 90 94 97 91 77 54 45 79 50 54 57 71 64 54 55 64 63 69 73 81 79 85 86 84 82 79 76 80 85 83 80 73 68
73 80 96 96 95 62 57 72 72 75 91 84 74 70 78 71 72 33 34 48 65 70 80 60 59 65 68 70 69 85 74 76 81 85 88 87 85 81 80 88 86 82 78 74
56 77 78 97 97 99 85 55 62 75 92 86 86 88 92 83 68 45 40 61 64 66 60 56 56 67 78 72 77 75 75 78 73 78 86 90 89 85 83 88 90 89 81 79
90 92 91 98 97 80 81 70 51 87 70 75 92 89 84 92 68 53 60 65 74 74 54 52 52 51 53 74 65 70 76 75 72 80 79 85 91 92 86 84 92 90 89 89
64 81 90 98 98 67 72 56 53 54 69 67 60 70 70 66 65 71 64 58 63 54 51 48 49 48 48 55 64 69 67 60 71 77 82 86 83 93 92 91 90 89 90 92
71 63 73 67 66 55 60 62 46 64 69 66 72 72 67 71 65 64 59 61 57 51 49 49 66 65 56 64 69 74 65 68 71 76 78 78 78 83 93 94 94 94 94 90
69 52 57 62 47 47 42 41 47 47 48 48 64 72 73 72 64 62 60 59 53 59 64 65 69 72 70 64 66 69 68 70 76 79 77 75 78 81 89 92 91 94 94 94
61 69 75 65 48 45 46 43 42 43 48 65 68 64 65 66 64 62 65 67 63 63 62 66 72 72 69 66 68 68 70 73 79 79 77 79 77 80 82 92 89 90 88 87
55 55 62 64 41 41 39 39 54 61 63 69 68 71 67 68 68 62 65 61 62 66 66 69 69 70 70 71 73 73 74 75 79 83 78 76 78 79 78 90 89 85 86 87

GFSCGP_sfc_rhum_003.txt.gz
RH
50 45 44 33 36 34 33 34 36 32 28 37 27 26 25 24 26 22 20 19 19 21 18 22 26 29 32 40 42 41 44 59 76 80 80 72 73 69 68 64 61 53 52 55
51 51 35 37 39 39 42 43 38 35 31 39 37 31 25 23 22 21 21 20 24 24 20 21 25 27 31 35 42 43 41 49 65 67 66 61 62 63 59 62 59 51 56 54
43 38 43 41 44 41 49 45 37 38 41 40 41 36 38 25 32 28 26 27 26 26 24 22 24 28 36 38 45 42 40 42 53 57 59 58 60 61 62 64 59 54 54 57
50 47 40 51 42 42 45 38 41 45 46 45 37 39 37 24 22 24 23 25 24 24 23 25 28 26 31 39 46 46 45 42 47 52 54 51 50 54 55 52 52 52 53 54
38 47 52 53 41 41 41 42 43 47 52 53 50 47 35 32 26 24 21 22 22 25 29 24 28 32 34 48 50 49 46 44 44 49 49 50 48 48 53 53 54 54 54 55
49 48 40 36 43 42 42 45 49 60 52 60 46 40 37 28 25 24 22 21 24 27 28 26 32 40 39 46 50 53 47 44 45 49 48 48 47 49 52 54 55 58 55 57
52 47 50 42 45 51 46 46 59 65 78 61 52 49 34 26 21 24 21 24 32 32 32 32 36 40 44 47 50 46 50 48 48 48 47 48 48 51 47 51 52 59 57 55
65 63 45 44 40 43 52 45 63 72 72 55 73 60 39 30 28 28 31 34 45 44 41 49 52 53 54 55 52 49 50 51 49 49 50 50 50 46 44 51 53 56 54 51
60 59 45 47 43 35 49 51 47 64 80 78 45 45 33 33 30 47 62 68 69 64 64 62 60 58 62 64 60 56 52 50 50 51 51 52 51 49 49 51 54 54 54 50
56 82 53 53 55 46 42 43 58 70 78 71 52 41 40 37 72 86 79 70 54 50 51 56 57 59 59 61 59 56 54 55 55 53 52 48 50 51 51 52 54 55 55 56
47 61 66 67 59 47 55 51 50 50 70 62 66 55 46 94 95 87 60 43 39 39 45 47 53 57 59 57 58 56 57 56 57 56 56 58 56 53 52 56 54 52 54 55
50 75 98 81 60 55 56 55 58 97 85 70 65 78 90 92 81 61 37 32 34 36 43 46 49 57 64 60 62 61 60 61 62 60 59 61 59 58 57 52 53 53 53 55
79 94 98 83 62 85 82 76 64 78 98 94 95 79 83 78 68 64 54 42 40 37 40 52 55 56 70 61 60 61 59 64 68 66 67 63 63 60 60 57 53 55 53 54
76 98 92 82 64 69 82 78 87 91 92 77 80 86 72 80 74 62 64 65 50 45 43 51 63 56 67 52 53 61 57 62 76 71 71 71 70 67 64 62 58 56 55 53
79 99 96 94 83 85 94 91 89 93 81 94 74 80 65 91 78 63 48 66 52 41 50 58 71 60 55 45 47 52 55 65 76 74 75 72 74 70 72 72 73 68 68 55
86 95 98 97 82 75 75 68 66 65 65 74 70 76 76 74 66 53 31 64 50 39 51 60 78 58 58 51 53 55 58 72 70 77 81 77 82 77 73 76 74 74 72 68
98 98 98 90 82 78 93 74 58 52 48 59 69 78 92 86 63 46 43 72 46 43 49 52 78 57 56 55 65 65 73 84 77 79 77 84 85 79 75 79 78 75 74 72
96 98 96 93 93 95 62 85 70 73 89 96 96 94 88 75 60 56 57 62 40 47 58 59 73 60 49 58 68 64 82 76 73 80 78 76 75 71 80 83 82 78 75 76
78 78 96 92 92 62 56 64 69 71 82 90 82 80 71 75 74 71 49 34 41 59 67 69 69 62 52 57 60 76 86 71 69 71 70 72 73 73 84 89 84 81 81 79
64 79 85 99 99 99 72 52 64 60 82 87 86 77 76 86 94 52 39 43 59 65 65 73 61 53 55 52 62 73 75 62 67 68 66 71 74 78 81 76 82 84 84 81
89 95 94 93 93 88 75 75 61 80 64 83 81 72 75 90 69 52 51 64 66 67 66 61 58 52 46 47 64 65 62 65 62 72 69 68 69 75 77 79 84 86 87 82
66 85 94 98 93 87 69 63 64 61 70 64 65 58 56 60 64 63 59 62 58 57 54 50 50 46 42 46 62 67 66 59 71 75 71 69 70 72 72 75 75 85 90 88
83 65 73 68 68 52 61 63 45 49 64 56 60 54 62 67 69 61 65 67 58 54 51 49 65 66 54 61 69 74 67 67 72 76 74 71 71 73 74 78 78 80 89 92
71 54 59 58 44 45 39 37 42 49 58 53 54 60 68 74 72 68 65 60 57 61 66 67 73 72 70 66 68 70 68 70 76 79 76 75 77 76 75 73 72 77 86 90
63 70 72 68 50 47 46 43 41 42 48 56 69 67 66 67 68 66 67 70 65 63 64 68 72 73 70 66 68 70 72 75 81 81 80 80 75 78 77 75 74 76 78 84
56 60 67 72 45 45 42 39 54 56 61 69 68 72 72 73 72 65 68 63 65 68 70 72 71 73 74 76 76 75 75 78 82 84 79 76 77 76 75 77 76 72 71 69

GFSCGP_sfc_rhum_006.txt.gz
RH
32 26 26 19 20 17 20 22 22 19 17 22 22 20 18 16 16 16 15 14 14 14 14 13 16 17 20 20 24 25 27 35 49 59 65 64 67 64 62 59 58 51 49 46
32 31 22 26 26 27 25 28 26 21 20 26 22 23 19 18 18 16 16 15 16 15 14 15 18 21 24 25 26 28 29 30 44 51 55 56 56 57 56 61 58 52 51 46
26 22 27 30 27 29 27 30 26 25 26 23 25 23 21 14 19 16 16 16 15 17 20 20 24 28 32 34 35 30 29 31 36 46 51 55 48 55 58 60 59 56 49 47
33 32 32 34 31 27 32 24 29 32 31 32 24 32 22 18 15 16 15 16 17 22 23 27 31 34 37 39 38 34 35 32 34 40 46 54 50 52 49 50 53 54 51 46
24 38 40 40 32 30 26 30 31 34 34 37 28 30 21 20 19 16 16 23 28 28 33 38 43 45 42 45 44 38 34 34 34 38 41 44 46 40 39 42 46 51 51 50
30 34 30 24 31 31 33 32 33 40 36 39 28 28 21 17 17 18 24 36 39 40 41 41 43 47 46 47 46 45 38 36 35 36 38 41 43 41 41 42 43 45 46 48
33 33 33 30 30 35 32 33 46 47 50 44 31 35 23 17 26 31 40 42 41 41 42 44 45 46 48 48 48 44 43 43 40 37 35 38 40 39 40 39 39 43 46 47
44 49 36 32 31 34 37 35 45 65 55 42 56 40 25 27 44 46 45 42 40 40 41 45 46 45 44 45 45 43 44 46 45 44 44 40 39 35 34 36 38 41 43 44
50 48 33 36 31 29 37 39 34 56 81 60 33 25 23 34 52 51 46 40 38 39 40 42 45 45 42 43 42 42 40 41 46 47 47 46 44 42 40 40 40 40 44 42
50 76 53 42 34 33 33 31 46 44 70 75 38 32 31 35 56 53 46 40 36 36 39 40 39 44 42 42 41 37 40 42 41 45 47 48 49 48 46 44 47 45 45 47
45 66 54 50 44 40 37 38 39 40 51 72 76 46 38 56 67 55 42 38 36 36 37 39 35 40 44 42 44 38 36 41 44 44 44 50 51 48 50 51 48 47 47 46
48 72 88 56 42 40 41 46 44 66 69 51 58 54 63 62 58 51 38 37 36 35 31 31 39 34 44 36 40 44 40 43 47 45 48 52 50 52 52 52 53 53 51 48
71 96 97 83 58 71 66 57 52 49 90 96 97 78 63 61 58 53 51 43 41 39 26 27 42 33 30 30 32 32 36 38 48 42 50 53 61 57 53 55 59 61 59 57
79 91 88 82 58 49 62 63 58 64 93 78 71 57 40 63 56 50 41 39 43 31 28 28 38 36 28 29 26 28 28 32 44 41 47 50 56 59 58 57 60 66 65 63
75 100 82 88 86 87 86 89 74 75 78 95 66 69 57 60 60 46 29 24 40 23 23 27 33 44 34 29 27 27 25 32 43 38 44 48 50 52 57 64 69 69 70 70
66 93 74 82 61 66 84 69 71 66 64 62 56 54 37 43 40 36 24 23 39 21 22 26 30 36 41 33 29 32 31 35 50 56 60 56 68 72 66 64 68 70 67 68
84 91 90 89 67 67 95 82 59 47 40 39 44 53 63 42 36 30 28 28 35 23 25 29 32 33 45 43 34 34 35 43 70 74 71 74 72 71 65 62 62 68 65 64
84 90 93 90 82 94 48 41 45 44 50 68 74 75 66 43 29 42 36 39 34 25 27 29 34 33 39 41 36 34 49 60 69 74 71 70 66 68 64 60 61 67 61 64
68 68 86 93 84 56 43 34 45 53 46 72 67 44 32 33 51 39 34 34 35 28 31 39 40 44 41 36 36 46 56 54 62 61 57 60 66 73 66 71 65 62 67 68
51 67 73 90 90 73 30 42 45 36 60 85 67 50 46 43 38 26 23 28 31 27 38 44 45 43 40 33 34 49 52 56 54 55 55 56 64 73 72 66 69 68 72 71
71 91 90 86 84 63 61 60 49 67 60 78 64 55 49 46 36 33 32 34 33 44 48 46 45 42 36 34 50 55 55 58 57 61 64 67 67 71 70 71 70 72 72 69
38 60 81 90 91 77 50 51 55 42 49 55 44 40 40 38 37 37 36 38 44 51 46 42 42 39 36 43 60 64 61 56 64 69 70 72 74 74 72 76 76 76 77 78
67 52 56 60 53 37 49 52 42 44 58 49 43 39 39 42 39 36 40 51 50 46 43 48 63 62 48 62 67 73 66 66 69 75 77 77 76 78 78 82 82 79 78 77
50 41 55 60 41 40 34 32 30 34 39 37 38 43 43 47 47 56 53 52 48 57 64 64 72 74 72 67 68 72 71 72 77 80 79 78 80 80 80 76 73 78 79 77
48 49 60 62 44 40 39 37 36 36 36 36 43 50 53 55 52 50 55 63 56 58 60 66 74 74 73 70 72 74 74 76 82 82 81 82 77 81 79 75 74 73 73 75
46 50 55 61 38 39 38 36 35 41 42 55 58 60 60 58 56 52 60 56 59 63 64 71 72 75 76 76 78 78 78 81 86 88 81 76 76 75 73 74 72 76 79 79

GFSCGP_sfc_rhum_009.txt.gz
RH
26 25 26 19 18 18 19 21 22 19 16 20 21 19 17 15 14 12 12 11 13 14 16 21 26 28 29 31 30 26 25 25 32 46 56 60 61 60 60 60 58 53 53 54
29 30 20 19 24 24 22 24 23 20 16 22 22 23 19 17 14 13 13 14 17 19 22 26 30 33 33 34 33 31 30 28 30 41 49 51 53 56 55 61 59 56 55 53
28 24 21 23 24 25 24 26 25 25 21 22 23 24 19 16 14 14 14 17 21 26 30 34 36 37 39 40 38 33 32 32 32 40 44 51 54 54 58 60 60 60 56 55
29 25 28 28 28 23 29 21 24 27 32 34 25 34 23 16 15 17 22 27 28 33 34 38 40 40 42 43 42 35 35 33 34 37 40 47 54 53 48 48 53 58 57 56
27 33 34 34 27 24 24 26 26 30 36 37 30 31 21 17 17 18 29 33 34 36 37 39 42 42 40 45 46 41 39 36 33 34 38 40 42 41 41 41 43 48 54 58
26 27 26 24 24 26 29 28 28 32 36 47 30 26 22 17 17 25 34 35 37 36 37 37 38 39 39 42 42 45 40 40 41 39 36 37 40 41 42 43 44 43 46 52
29 29 27 27 29 31 31 31 47 52 53 54 24 30 23 17 26 25 35 36 36 37 39 41 42 40 41 42 41 37 40 43 42 44 43 44 42 39 37 38 40 45 45 49
40 39 31 30 31 34 35 35 54 70 58 46 51 44 27 34 36 37 34 35 36 37 38 39 39 38 38 41 40 39 38 38 40 42 45 47 46 45 42 42 43 44 44 46
43 39 32 32 29 29 35 39 38 64 70 69 41 30 21 43 42 38 36 34 36 37 38 36 37 40 39 39 37 35 36 37 36 37 42 45 44 47 49 50 50 49 50 43
43 60 40 39 32 32 37 44 80 74 96 84 38 31 28 25 38 41 40 38 36 35 34 34 32 39 38 37 39 35 33 35 36 37 38 40 42 43 43 48 56 55 53 53
46 59 51 43 41 40 38 41 40 37 47 64 62 40 24 37 42 42 39 37 36 34 32 31 35 30 34 31 34 35 34 35 38 37 40 47 46 42 40 43 45 55 61 58
46 68 88 51 34 36 45 45 43 62 76 53 63 70 30 46 45 45 38 37 35 36 23 22 33 25 24 26 29 29 29 34 38 33 37 44 46 52 50 45 46 56 55 60
64 88 96 73 40 60 64 46 48 51 62 76 86 65 39 50 52 50 48 37 38 38 25 20 24 24 20 21 22 21 21 26 34 33 37 40 47 50 49 52 54 56 58 60
69 64 76 77 51 48 70 60 68 86 93 83 69 53 42 45 52 49 43 38 39 37 25 22 25 26 26 22 21 20 19 19 30 33 36 45 49 47 47 49 51 55 59 59
63 90 68 65 58 57 62 64 57 62 59 72 60 64 55 51 44 41 48 30 27 32 20 20 24 26 28 28 26 23 22 26 28 32 44 42 47 48 57 63 60 56 62 58
49 83 71 84 59 58 66 57 56 56 57 54 50 48 30 28 35 36 33 24 21 29 18 20 24 26 27 29 34 29 27 30 34 47 60 54 63 65 67 66 64 58 55 58
65 75 80 83 57 58 76 61 50 46 40 41 48 57 62 42 34 32 31 26 19 23 20 21 25 27 29 30 37 36 31 40 57 68 72 75 70 67 64 63 60 57 55 54
70 77 78 84 78 93 47 24 32 39 42 50 65 72 54 35 24 26 28 30 26 24 24 21 28 30 31 35 36 33 48 57 60 66 67 68 65 63 61 62 62 57 53 56
47 58 79 92 82 53 45 34 33 40 44 40 61 37 27 26 28 24 17 21 25 25 25 28 34 38 37 37 37 46 52 54 54 54 58 57 59 66 64 70 68 60 62 63
36 44 63 77 88 78 30 32 38 34 56 83 67 52 44 34 40 28 21 28 27 23 27 36 46 44 41 37 36 53 55 58 57 56 57 57 63 70 72 68 70 69 71 69
60 74 84 83 84 62 57 56 37 69 62 83 61 49 47 44 36 34 32 29 31 39 44 49 47 42 38 37 54 59 59 60 57 62 64 67 68 73 72 74 74 77 77 73
35 56 71 72 77 70 46 49 55 45 56 59 41 36 38 36 38 37 32 33 35 48 49 45 45 44 41 45 63 66 62 57 64 70 72 74 75 75 75 79 78 79 81 82
58 43 53 54 46 33 39 43 39 45 62 50 41 38 37 40 36 34 35 38 49 46 46 54 67 67 52 66 69 74 67 69 72 77 79 78 78 79 79 82 83 82 82 84
44 34 48 59 39 38 35 32 31 33 37 35 35 40 40 43 40 40 48 51 51 60 65 67 75 79 78 70 72 75 73 74 80 83 82 80 82 80 79 76 75 81 83 84
47 39 55 56 42 38 37 34 35 36 36 36 36 38 44 47 49 46 54 64 57 59 62 69 76 77 75 71 74 76 77 80 86 86 83 82 78 79 78 74 74 75 78 82
42 44 49 55 35 35 33 33 33 38 38 44 51 59 59 59 57 52 59 55 57 63 66 73 74 76 78 78 79 80 80 84 85 85 79 76 77 76 73 74 73 74 78 78

GFSCGP_sfc_rhum_015.txt.gz
RH
44 45 47 37 37 35 36 40 42 35 26 36 31 35 30 24 25 28 38 43 49 51 48 49 51 54 52 49 47 45 46 50 57 71 91 92 95 93 81 86 80 80 86 86
48 51 37 36 37 37 39 40 41 34 30 31 32 33 31 27 28 30 40 49 53 53 52 51 55 56 58 54 53 51 48 47 49 58 78 82 82 80 69 70 77 77 79 82
50 38 36 35 38 39 43 42 42 38 36 37 40 44 34 31 37 39 44 48 52 56 56 55 55 61 61 60 63 54 53 51 51 51 52 61 72 77 72 69 68 62 72 75
46 35 37 44 43 41 46 38 40 40 45 49 49 61 41 35 46 48 51 55 57 57 55 52 56 59 59 60 63 58 56 54 53 55 56 61 67 69 71 72 69 64 70 80
49 45 45 45 41 37 43 40 39 43 50 63 60 64 53 44 53 55 58 56 58 58 57 57 58 55 58 56 58 60 55 55 56 57 59 62 64 67 70 66 65 66 64 73
45 39 39 39 38 38 38 42 44 49 58 80 59 58 53 41 46 58 56 56 56 59 58 57 55 54 56 59 56 56 52 55 57 55 56 63 66 64 68 69 70 69 71 73
51 45 43 36 41 43 39 44 74 80 88 76 58 63 49 48 47 50 57 63 63 61 59 57 58 58 56 57 57 48 52 52 54 55 55 56 60 67 69 68 74 78 76 77
62 65 43 39 40 48 48 49 76 82 85 73 63 70 50 56 53 53 54 58 53 53 55 59 57 59 57 53 54 54 54 55 57 58 58 56 55 53 54 64 69 74 71 74
70 57 46 42 40 41 53 58 58 74 90 90 68 57 55 55 53 52 54 52 54 54 53 60 58 57 58 56 53 54 54 54 57 61 63 64 60 57 56 59 65 73 72 55
61 74 57 50 47 48 50 56 78 89 95 99 78 70 67 62 56 53 55 57 56 52 50 48 55 50 51 51 52 51 53 54 53 57 63 64 67 66 62 62 65 67 71 71
58 69 68 57 60 58 55 60 71 71 84 90 91 66 53 56 57 54 54 53 50 44 39 49 39 46 46 46 43 47 50 52 52 50 53 61 65 66 66 67 66 69 73 74
69 78 94 74 58 60 59 62 61 79 82 85 73 71 58 60 58 54 50 47 48 43 29 42 36 34 36 37 38 37 46 50 51 50 50 54 59 62 65 64 67 70 68 71
70 88 97 75 55 76 83 69 66 66 86 86 91 74 61 63 58 48 49 47 42 44 31 28 36 32 33 33 33 32 34 44 48 50 55 55 58 61 65 65 68 70 72 72
66 86 80 71 56 68 74 72 70 70 86 84 80 70 52 50 72 66 65 59 48 48 35 31 35 35 39 39 35 36 35 39 47 49 57 63 68 70 71 74 79 82 79 79
70 94 86 81 77 78 81 80 75 79 73 90 60 65 54 52 59 54 48 58 56 53 39 35 37 40 35 36 41 38 37 39 44 50 56 60 62 60 70 71 74 75 79 66
71 86 87 89 73 75 80 73 70 70 71 72 66 61 37 53 45 45 45 36 31 35 37 32 34 37 38 36 40 46 46 49 54 59 67 68 74 71 75 71 69 68 64 60
75 89 95 92 78 77 85 63 48 46 39 51 59 55 83 64 48 42 40 39 38 26 30 30 32 36 40 41 46 50 51 59 82 85 86 80 82 81 75 74 73 65 61 60
83 86 93 97 88 98 48 43 45 51 55 66 79 89 82 62 37 38 37 39 38 39 35 33 36 36 52 55 52 53 64 80 79 83 84 84 81 86 81 71 68 65 64 66
79 77 94 93 99 70 49 44 43 42 48 64 61 85 58 40 45 42 34 39 40 37 38 45 46 54 58 59 63 68 74 76 79 72 78 83 86 85 75 77 74 71 73 73
66 74 80 100 98 97 60 51 45 46 63 64 80 80 67 56 74 59 41 42 40 40 44 62 67 65 60 64 64 72 80 86 81 77 74 70 79 86 83 78 77 76 78 76
83 88 92 87 92 89 75 70 45 70 55 87 76 68 70 71 61 51 51 50 47 52 54 68 63 62 59 70 74 75 77 78 82 84 79 83 80 82 81 82 80 81 82 79
65 80 96 99 100 92 60 63 60 56 86 77 62 57 56 56 57 55 51 52 53 65 66 64 67 64 63 72 76 78 77 75 85 88 89 87 88 87 83 87 85 85 85 86
59 60 71 72 78 56 63 50 54 66 72 71 61 57 59 61 56 52 52 54 64 62 65 67 76 72 68 87 89 89 81 82 85 94 93 92 90 87 85 87 86 85 83 85
62 55 66 64 51 55 51 52 48 53 58 57 61 62 61 58 55 56 55 61 67 81 83 87 88 91 91 91 88 91 86 86 99 98 91 88 87 86 86 81 79 85 86 87
59 61 74 72 49 48 48 47 44 54 53 53 54 54 53 57 58 59 69 84 82 81 84 88 89 92 92 91 93 94 89 95 95 93 89 88 86 86 86 81 82 83 84 86
49 50 56 60 39 45 41 40 48 54 54 56 59 59 66 68 67 71 84 82 79 83 84 90 91 92 92 94 95 94 95 98 100 95 88 87 87 85 82 82 82 82 83 82

GFSCGP_sfc_rhum_021.txt.gz
RH
49 42 43 40 38 33 37 44 43 41 35 40 38 40 34 35 41 54 65 64 64 63 58 55 56 59 60 61 60 60 60 60 61 82 93 81 90 71 63 60 65 71 80 90
50 44 32 35 42 42 47 49 44 42 39 39 40 38 34 40 48 48 64 66 64 62 59 55 56 58 62 63 62 60 60 62 62 63 74 79 78 71 63 63 62 62 62 75
47 39 39 36 45 44 50 49 52 45 43 46 48 48 40 56 60 62 65 64 63 63 64 63 58 62 63 62 66 60 59 60 64 62 63 67 67 70 67 68 68 67 64 64
52 44 43 51 45 44 53 46 44 47 53 61 57 61 49 48 64 69 71 72 70 68 66 64 63 61 62 62 58 57 55 56 56 63 64 68 73 74 79 75 67 63 60 63
51 53 54 52 47 45 49 50 52 49 56 65 56 59 50 53 64 72 77 73 72 71 67 66 66 60 60 59 62 59 50 50 50 52 55 51 54 60 54 56 50 55 52 54
54 47 45 44 46 47 45 45 55 69 62 75 52 51 60 53 52 71 73 72 70 70 67 64 60 56 58 58 59 60 49 52 49 46 48 49 50 48 50 54 55 56 56 54
58 52 49 41 46 48 45 53 71 79 84 78 69 70 50 58 62 62 68 74 73 70 69 64 59 59 56 56 57 55 56 59 57 51 49 49 52 52 54 60 63 61 60 61
65 72 50 44 42 47 50 51 74 79 87 75 77 77 58 70 75 66 64 69 70 68 65 65 60 59 56 54 57 59 60 62 62 61 64 60 57 57 61 62 64 68 69 69
73 70 54 45 46 43 53 59 60 76 97 93 73 71 66 71 74 77 77 73 72 69 68 65 63 60 56 53 51 53 58 61 64 65 67 69 67 65 65 66 69 70 70 56
66 76 60 54 51 54 56 57 73 83 89 98 80 74 65 71 73 74 73 70 70 69 70 66 63 61 57 56 55 51 49 55 62 64 65 65 64 66 66 67 68 68 70 70
63 67 77 67 64 63 66 74 75 70 78 84 88 60 60 61 66 69 67 65 66 62 63 69 64 59 58 57 56 54 51 50 52 54 59 63 62 59 60 61 67 70 69 72
64 76 91 73 69 79 73 67 69 77 78 91 82 63 63 61 59 61 62 60 62 60 57 57 63 56 56 55 56 56 56 56 55 55 55 56 56 57 58 60 64 71 69 72
68 85 97 85 65 78 79 77 76 81 87 86 83 71 61 63 62 58 58 60 58 58 55 58 54 55 52 50 49 53 55 56 57 57 54 54 56 61 63 68 71 74 78 80
68 80 78 75 68 72 81 74 73 72 93 75 71 73 80 67 61 60 56 56 56 57 56 50 52 53 50 45 43 41 45 51 55 56 57 59 62 63 66 71 74 77 78 74
74 88 90 84 64 71 72 74 78 76 75 79 69 69 60 59 68 70 66 64 67 68 61 44 54 47 44 42 41 40 42 47 54 56 59 64 65 66 72 78 81 74 67 60
75 91 93 96 82 80 93 88 79 75 92 95 89 75 52 68 63 58 51 50 61 67 61 44 45 45 44 44 46 45 44 51 56 59 68 63 80 81 85 80 72 64 63 64
94 95 95 91 80 88 94 82 70 64 62 62 67 55 75 56 53 53 52 47 42 37 56 53 41 42 44 43 41 50 57 67 82 82 90 91 87 83 79 75 69 67 68 66
92 96 98 97 89 95 61 50 46 52 53 59 71 76 74 63 62 55 50 46 38 36 32 32 44 43 43 47 52 60 72 80 78 84 90 90 81 83 80 77 76 72 71 72
76 92 97 96 96 73 55 40 44 46 43 65 60 75 64 61 47 48 38 38 37 40 42 45 45 42 42 53 62 74 77 76 72 80 87 84 84 89 83 88 84 80 82 80
65 75 86 97 96 94 54 46 43 40 62 67 74 72 74 51 71 56 40 41 42 41 43 45 49 58 66 68 68 72 77 75 73 81 77 79 90 93 94 88 89 85 90 82
100 98 94 93 95 84 71 66 44 64 49 77 70 62 76 63 52 49 45 44 44 47 48 54 63 66 67 68 76 76 78 71 85 81 82 87 90 95 92 92 90 91 91 85
78 92 98 97 100 91 66 57 60 59 71 68 62 52 62 54 50 50 47 47 49 54 56 62 74 71 71 76 78 78 74 82 86 90 88 90 95 90 88 99 94 96 95 95
58 61 77 76 77 59 64 58 50 57 63 68 56 56 60 59 55 50 54 58 57 55 58 74 80 75 74 82 82 80 83 84 87 96 95 97 94 93 95 100 96 94 95 97
63 52 64 67 57 54 53 55 50 58 50 47 58 54 59 56 54 52 56 57 61 70 78 88 88 86 88 88 84 87 85 90 96 95 92 93 96 96 96 91 90 94 95 95
58 58 75 72 47 51 47 53 52 53 56 56 57 58 60 62 57 61 62 74 72 76 92 88 85 86 88 89 89 89 88 93 94 94 90 95 96 99 95 91 92 90 88 91
54 46 53 60 38 38 38 43 43 47 47 53 60 61 66 70 64 66 69 69 74 86 92 91 90 89 90 92 90 90 93 94 95 92 87 96 96 96 92 93 90 84 84 82

GFSCGP_sfc_rhum_024.txt.gz
RH
51 43 46 42 37 38 37 44 42 43 38 45 38 40 34 36 47 66 69 67 67 64 60 58 58 63 65 64 63 64 65 67 66 81 93 63 69 60 64 64 64 58 62 68
48 47 36 38 45 38 45 47 44 41 42 42 44 44 38 45 54 56 66 68 66 63 60 58 60 62 64 67 68 64 66 68 66 70 76 78 76 67 62 63 57 59 64 69
45 39 39 36 44 45 50 48 53 41 48 52 61 52 45 63 68 67 66 66 63 62 62 62 60 64 64 64 68 62 63 67 68 68 68 71 71 70 60 57 49 50 51 59
49 45 45 50 44 42 49 46 45 50 59 67 59 66 51 55 72 75 72 71 71 69 67 62 60 61 61 61 60 57 53 54 56 56 52 52 54 52 69 62 58 50 52 54
56 53 56 53 50 45 49 55 55 60 64 67 59 65 51 56 62 78 79 74 75 75 70 65 62 57 57 58 60 56 50 47 48 50 44 44 49 56 61 60 49 56 52 56
57 56 49 48 51 50 47 51 58 72 62 77 54 52 61 57 54 74 78 74 72 72 70 70 62 55 55 55 56 56 48 49 47 45 45 44 47 49 49 55 56 61 63 58
69 57 53 43 48 49 48 54 72 80 85 79 69 67 53 58 64 66 70 76 76 72 70 65 59 54 54 55 55 51 54 55 54 48 49 51 54 54 57 62 65 65 66 70
68 73 55 48 47 51 52 54 77 79 87 78 78 78 56 71 76 75 67 72 75 74 66 62 59 56 53 56 58 58 59 60 61 60 61 60 60 60 64 64 68 72 72 72
70 68 57 48 48 42 54 59 59 75 98 94 74 70 68 74 79 83 82 77 78 74 71 66 61 60 54 55 57 58 60 62 62 63 65 66 62 61 63 65 66 70 69 57
61 74 64 58 55 57 54 54 68 82 81 98 79 78 67 65 70 84 83 80 77 73 71 69 68 62 56 49 47 50 55 60 62 62 60 60 63 62 62 62 64 64 64 67
70 67 80 65 63 63 73 75 76 68 80 85 89 68 59 61 71 79 78 73 75 73 72 72 69 66 60 57 56 51 52 56 58 62 65 60 60 61 61 61 66 67 66 71
64 77 90 72 77 76 73 68 70 72 79 91 87 66 69 71 67 69 72 69 69 68 68 71 70 66 63 60 58 55 53 53 54 57 60 57 58 58 60 62 64 69 69 72
67 84 97 84 74 80 78 76 77 80 83 86 83 74 64 73 67 65 66 66 65 64 66 62 69 64 61 60 60 56 56 55 58 58 57 58 58 60 62 66 69 71 75 76
66 81 77 72 69 74 84 80 80 70 82 71 72 66 74 66 60 60 59 61 62 64 64 65 65 66 57 54 53 56 57 57 61 61 59 60 62 62 66 69 72 72 70 65
69 91 87 84 69 69 68 71 82 78 70 71 61 70 72 66 67 64 63 61 64 62 64 62 59 59 58 55 51 45 48 55 59 60 62 63 66 66 71 75 74 68 69 62
77 99 94 95 86 78 84 76 77 68 69 73 87 82 63 69 60 70 66 66 64 61 65 63 52 54 50 48 45 41 41 49 58 62 66 64 73 81 85 80 72 69 67 67
88 95 97 93 89 86 96 88 85 78 85 68 82 69 70 64 64 64 59 55 51 52 57 62 52 49 47 45 40 47 46 57 74 81 86 87 87 85 79 76 72 70 71 70
95 92 96 98 96 96 65 53 63 80 75 73 70 68 68 58 57 56 58 56 50 41 32 43 56 47 48 50 50 52 64 79 82 85 86 90 81 85 84 79 80 75 75 76
81 88 97 97 95 85 72 44 43 43 46 59 61 63 56 60 50 49 43 46 47 43 41 41 40 43 45 47 53 66 84 83 79 76 82 84 82 88 82 91 89 85 85 82
72 84 96 96 96 93 62 46 45 38 55 69 68 67 73 52 54 39 41 41 40 40 44 47 49 51 53 55 67 81 83 82 76 79 79 80 85 92 93 89 92 93 94 82
96 97 96 96 96 92 76 62 42 58 57 81 76 73 71 60 45 37 44 43 44 48 46 48 55 54 57 69 83 82 83 78 82 84 82 86 88 94 94 95 94 97 96 86
82 93 96 98 96 90 60 52 53 55 69 71 58 48 52 46 43 48 46 44 45 48 49 55 64 64 70 78 82 83 80 82 88 85 87 89 93 84 88 99 98 98 99 98
61 60 72 72 73 60 54 57 53 57 64 61 51 50 49 52 53 50 53 54 49 50 54 61 72 75 75 86 83 83 84 87 88 90 92 94 90 92 89 98 95 98 100 99
61 51 64 59 60 54 53 54 54 54 47 49 54 50 59 51 50 52 55 56 58 68 70 82 90 88 85 89 84 88 89 89 92 94 90 90 92 90 93 86 88 100 100 97
54 56 76 72 48 47 43 50 52 55 55 55 53 52 52 58 58 60 63 73 73 73 83 88 85 84 85 90 88 90 90 91 92 93 89 90 87 92 90 89 94 91 89 94
52 50 50 61 38 35 34 35 41 54 54 57 59 61 68 70 66 69 73 74 76 79 92 91 90 91 93 92 91 93 92 91 92 92 88 86 84 87 87 94 92 84 84 82

GFSCGP_sfc_rhum_027.txt.gz
RH
51 44 47 43 38 42 40 42 37 40 38 40 38 37 31 36 45 59 61 59 57 55 52 52 54 55 57 57 59 61 62 63 62 68 63 62 63 58 56 54 58 58 61 60
47 48 40 41 44 39 42 43 42 39 40 40 41 42 36 39 46 52 58 60 57 55 53 53 52 54 56 57 58 59 63 62 60 61 65 62 56 51 44 45 45 45 53 59
45 40 40 36 46 46 48 45 48 38 48 50 50 52 47 55 62 63 60 59 56 56 55 53 52 53 53 53 54 52 55 59 60 59 57 55 51 47 41 42 42 46 43 46
45 44 44 46 42 41 48 44 43 47 52 59 54 66 48 54 64 68 68 64 62 59 56 53 52 50 51 50 48 46 48 48 46 45 45 45 42 41 47 44 44 45 47 48
60 54 55 56 50 41 50 52 50 57 61 62 58 61 52 57 51 70 72 67 65 62 56 54 52 50 49 49 48 45 44 43 42 42 40 41 44 46 46 45 42 43 43 49
59 54 50 47 53 48 51 54 59 66 61 73 57 55 55 48 48 66 73 68 66 66 61 56 53 48 46 46 45 45 42 42 42 39 38 37 40 40 43 45 46 48 47 47
66 57 53 46 51 50 53 53 70 78 83 76 66 62 50 46 55 57 67 70 69 66 63 58 51 46 44 43 45 43 42 44 43 41 41 42 43 43 44 46 48 47 47 50
76 70 57 50 47 54 56 55 73 78 84 75 79 71 54 60 71 72 68 67 70 69 63 58 51 48 46 49 48 48 47 49 49 47 49 50 49 46 49 50 52 54 52 53
71 65 60 52 50 46 53 59 60 75 97 90 69 64 56 70 71 76 79 74 72 68 64 58 57 50 48 50 52 51 53 55 54 54 51 50 49 49 51 52 51 53 54 48
58 73 65 57 53 60 52 51 64 77 77 93 75 70 59 64 62 77 82 78 73 71 68 62 58 55 50 50 52 54 53 52 54 54 53 52 51 51 51 50 50 51 54 52
62 65 76 59 58 61 68 66 73 63 74 83 89 68 60 54 59 68 74 72 70 68 65 63 62 60 54 51 52 53 55 56 56 54 54 54 52 51 50 50 52 52 54 55
62 72 90 70 75 71 73 62 65 76 78 88 84 67 65 65 60 65 70 70 69 65 64 64 63 65 60 55 52 48 52 54 54 55 52 50 50 50 50 52 54 57 55 56
66 80 93 84 75 80 80 74 73 76 81 87 83 78 65 67 66 69 70 73 68 67 70 68 72 67 63 56 55 49 49 48 52 54 53 52 53 53 54 55 57 57 56 55
59 78 74 66 69 75 85 80 78 69 90 82 68 60 70 63 59 64 68 67 69 68 66 66 68 70 64 59 54 52 50 50 54 54 54 56 56 55 56 60 61 57 54 51
65 86 85 78 67 72 72 78 82 78 65 72 61 69 72 63 63 61 63 62 65 65 67 67 66 66 68 62 57 53 50 53 56 56 55 55 59 60 63 68 65 61 58 51
86 99 92 93 81 72 79 73 79 72 72 74 68 71 56 62 67 69 65 64 63 63 62 63 62 59 59 58 55 48 47 53 56 56 57 57 70 74 79 74 67 62 60 59
96 98 99 98 92 88 98 85 76 73 75 64 83 62 76 73 68 66 64 66 66 62 55 60 60 54 54 54 50 50 46 53 66 72 82 82 81 82 78 70 67 62 61 60
99 99 99 97 97 96 68 59 77 74 76 83 74 76 79 70 63 59 62 59 54 50 48 48 59 53 49 52 52 50 58 66 69 76 84 85 81 81 77 73 69 65 64 65
93 98 97 96 95 84 75 47 77 81 69 83 75 75 53 56 52 51 49 56 52 52 47 40 40 50 50 49 52 60 73 75 77 75 78 80 80 82 78 80 74 72 73 72
98 99 93 97 96 93 75 48 40 38 62 65 76 78 75 52 65 48 40 46 46 47 44 44 45 46 46 47 53 73 76 84 81 78 75 78 81 83 83 78 82 81 82 75
97 97 97 97 96 94 81 62 42 65 64 79 74 76 67 56 46 37 35 43 45 46 44 48 53 50 48 59 79 77 84 81 82 84 84 84 82 86 84 84 83 87 85 80
87 95 96 97 97 93 59 47 55 61 71 71 63 60 57 44 37 40 40 41 43 46 48 54 55 54 55 74 82 81 81 83 85 85 84 87 90 84 87 90 88 89 90 90
73 81 86 79 82 60 44 56 51 56 66 62 52 49 48 42 37 38 44 49 47 46 49 54 66 65 67 83 85 81 84 84 87 87 89 90 90 89 91 91 89 85 90 88
60 50 61 64 62 52 48 52 51 48 41 47 47 46 47 42 44 46 52 53 55 67 70 74 82 82 80 88 87 85 88 88 88 88 88 89 88 88 90 83 83 90 89 86
59 55 74 70 46 49 46 49 50 50 51 49 53 47 49 53 53 52 61 75 74 72 79 87 80 76 75 89 90 90 89 87 87 87 87 89 88 91 83 79 83 80 82 87
50 52 48 57 36 34 34 40 46 53 53 60 59 62 66 64 59 65 71 74 75 79 87 89 85 86 85 91 91 91 91 86 86 87 86 86 85 84 79 79 79 75 78 77

GFSCGP_sfc_rhum_030.txt.gz
RH
33 26 31 24 22 23 26 26 26 23 24 26 24 24 19 20 23 26 30 32 33 36 38 37 40 42 46 49 51 54 58 59 58 59 60 56 50 46 46 46 48 46 48 50
31 32 24 29 29 27 28 28 27 26 26 27 24 25 20 22 24 25 28 33 34 36 36 38 38 40 44 47 49 50 51 52 49 48 47 43 39 35 34 37 35 34 40 42
27 28 30 28 33 32 30 30 27 27 31 31 32 29 28 29 40 42 36 34 34 34 34 36 38 38 40 45 47 47 47 48 44 41 38 36 33 33 32 31 31 30 29 33
28 30 31 32 30 28 32 28 29 32 32 37 35 36 33 29 36 45 46 40 36 37 36 36 36 35 39 40 42 43 44 42 40 38 36 35 34 34 30 28 30 31 31 32
33 40 39 36 31 30 35 35 33 35 38 42 38 40 32 37 33 41 44 41 38 37 36 36 36 37 34 38 40 38 37 36 34 31 30 29 30 30 28 28 28 28 31 34
40 38 37 35 42 32 43 41 41 42 44 55 44 40 32 28 28 36 42 42 40 39 38 36 36 35 33 36 37 36 32 31 30 29 27 28 30 28 29 28 28 29 29 32
48 44 37 37 43 40 37 39 52 59 61 58 46 47 30 27 34 36 43 43 42 41 38 36 35 32 30 32 33 31 27 28 26 26 26 26 26 26 27 26 28 30 32 32
59 57 45 37 38 41 40 37 51 77 65 48 61 52 35 44 48 50 46 42 43 43 40 38 32 31 30 32 29 27 26 27 25 26 29 29 27 24 27 29 30 31 32 35
54 56 46 42 38 34 43 47 41 61 86 69 41 41 36 53 50 52 52 50 47 45 44 39 33 29 28 30 30 28 27 28 28 29 29 31 29 29 30 32 32 33 35 34
38 48 50 44 40 45 39 38 54 51 84 79 44 45 34 50 44 52 58 55 49 46 44 39 33 30 29 29 30 28 27 28 31 32 30 30 31 32 32 32 34 35 37 36
42 52 59 47 46 45 48 44 48 43 51 67 57 38 34 35 37 44 44 50 48 46 44 40 35 32 31 32 34 31 31 31 35 35 33 37 36 33 33 33 35 35 36 34
50 60 71 51 51 54 39 40 43 52 71 58 65 46 43 41 36 41 40 48 46 44 42 40 37 38 35 34 35 34 32 33 33 34 35 36 34 35 34 34 35 38 36 37
54 73 89 77 60 62 54 53 42 38 68 83 76 51 48 47 45 42 42 46 49 48 46 43 41 39 37 31 34 33 34 34 35 34 35 35 36 35 35 37 38 38 37 36
47 64 61 64 52 48 60 56 53 47 68 59 58 46 46 44 45 41 46 46 46 51 50 45 45 42 40 37 32 29 28 31 37 36 35 37 36 36 37 40 41 40 38 38
49 75 54 48 48 52 57 55 58 53 46 57 44 50 46 45 46 37 38 46 48 51 51 49 50 50 44 45 41 34 29 31 33 35 36 35 40 39 42 49 52 48 46 38
68 82 68 78 61 58 65 59 59 54 48 48 45 48 37 40 40 44 45 49 51 51 50 50 49 50 50 47 47 43 38 36 35 36 38 33 47 57 65 64 57 52 51 49
85 92 100 97 82 85 94 73 62 56 48 48 59 53 63 54 52 46 45 46 46 44 45 48 48 48 47 44 46 48 44 44 56 64 70 72 71 71 68 63 58 53 51 47
88 100 100 99 98 98 68 50 52 54 55 58 72 92 75 58 48 49 50 49 49 50 47 45 46 43 44 44 46 43 53 57 67 72 77 75 72 75 72 65 59 52 50 52
96 97 98 97 96 80 58 50 67 73 67 66 61 64 55 45 38 36 40 41 43 43 40 41 40 41 37 41 41 54 61 61 61 62 69 72 73 79 72 74 62 55 59 60
100 99 98 97 97 94 55 45 45 41 58 78 82 86 62 41 57 45 36 42 41 39 39 37 34 37 37 38 43 59 62 65 62 59 60 67 76 82 80 69 71 69 70 68
97 98 98 97 97 89 86 50 36 70 84 79 82 79 60 54 43 34 37 35 36 38 41 40 37 32 32 40 60 59 63 66 63 75 75 78 76 81 73 74 70 77 76 67
85 95 96 97 97 94 48 40 52 64 59 66 56 53 53 40 31 31 27 29 33 38 38 44 44 40 39 57 67 66 64 61 76 79 81 82 84 75 77 82 80 80 80 82
91 85 94 90 87 56 41 51 46 54 66 52 43 46 43 37 28 29 33 36 38 38 39 45 51 51 47 70 73 72 64 78 84 87 89 87 84 82 84 82 80 76 80 75
58 44 62 72 57 46 44 52 48 45 40 43 42 45 44 37 28 29 33 37 40 61 65 71 75 75 72 77 80 75 84 85 87 87 85 84 84 81 83 73 71 76 75 71
57 52 68 56 39 42 43 50 48 44 36 40 40 36 38 35 33 33 51 66 61 65 73 76 73 70 67 74 78 83 85 87 85 85 82 82 77 81 75 71 68 68 67 68
44 45 46 56 34 35 34 37 44 48 45 46 49 53 55 53 48 55 62 60 65 70 75 79 76 76 72 82 83 89 90 87 86 82 78 71 69 68 64 63 64 72 75 78

GFSCGP_sfc_rhum_033.txt.gz
RH
27 26 29 22 20 18 20 23 23 19 20 23 22 20 17 18 19 18 18 22 25 27 29 31 36 41 48 54 58 62 65 64 60 61 58 57 56 49 47 46 46 44 46 48
30 31 22 20 23 22 24 25 25 21 21 25 22 22 19 16 19 18 17 21 25 28 29 32 35 42 45 53 56 56 56 56 52 49 46 43 41 40 37 37 34 34 39 38
28 24 25 27 27 28 26 27 26 25 27 25 25 28 26 20 18 18 22 20 24 28 28 32 36 41 46 52 53 52 51 48 46 43 40 39 38 37 35 34 31 30 28 32
27 22 27 29 27 25 30 22 26 27 30 37 28 37 26 24 29 31 32 28 27 28 28 29 34 38 45 48 48 47 47 45 41 39 40 39 38 37 32 30 31 31 30 30
28 32 33 32 27 24 29 29 30 32 37 39 36 41 30 25 27 30 33 34 30 30 30 32 33 36 37 45 48 45 43 40 36 35 34 35 35 33 28 28 29 30 32 34
30 34 30 29 36 27 33 36 36 38 42 59 46 41 32 28 30 26 32 34 32 32 31 31 34 34 37 42 42 42 38 35 33 31 29 31 35 30 31 30 29 28 29 31
37 38 34 34 39 37 35 41 54 59 63 60 39 44 33 24 29 26 34 35 33 33 32 33 35 32 34 38 39 35 32 30 28 27 27 29 27 27 28 27 28 31 31 32
50 51 40 36 38 40 42 40 54 76 62 48 51 49 32 28 32 36 30 33 34 35 34 34 32 32 33 36 34 29 28 27 26 26 26 26 25 22 24 26 29 31 32 34
42 45 38 35 33 34 42 47 38 58 88 67 39 34 27 44 42 40 38 37 38 38 36 35 31 29 31 32 30 28 26 25 25 26 26 27 24 25 27 30 31 33 36 33
34 45 42 40 35 36 37 33 56 51 91 77 37 35 35 51 40 41 46 44 40 38 36 35 31 29 29 29 29 25 23 25 27 27 26 27 27 28 30 31 36 35 36 36
35 42 53 44 45 42 45 44 42 39 47 63 56 36 24 28 30 37 42 44 40 39 38 36 32 29 29 30 31 27 25 26 30 30 29 34 35 30 31 36 37 38 39 36
44 45 57 44 39 34 33 37 38 53 67 54 52 46 32 25 25 35 36 41 39 40 38 37 34 30 30 33 34 32 29 31 34 30 30 38 33 35 36 34 36 42 40 40
49 65 93 71 56 54 48 42 40 38 63 75 73 48 36 37 32 34 35 39 42 42 41 38 36 32 29 29 33 30 30 31 35 31 35 37 38 38 38 39 40 40 40 39
49 63 73 68 49 42 53 49 46 44 62 56 54 42 38 38 38 37 38 40 40 44 43 38 38 34 32 28 29 29 28 27 36 34 38 40 39 39 38 41 44 43 41 40
49 83 64 61 54 48 49 50 49 53 45 54 43 43 35 35 35 32 34 38 40 45 45 44 43 41 34 33 31 29 28 30 32 35 38 38 42 39 41 49 53 52 49 40
65 82 70 86 64 59 61 52 51 51 47 44 40 40 28 28 30 32 34 40 42 44 46 47 46 46 42 38 38 34 30 33 36 38 40 35 44 53 66 66 64 58 55 51
83 92 100 97 81 80 94 78 56 50 45 42 48 42 56 41 40 38 39 44 45 44 45 48 48 51 51 42 46 43 39 39 46 55 64 68 64 70 71 71 66 59 57 52
86 100 99 97 100 98 73 45 51 54 47 45 50 96 63 54 46 50 43 47 46 46 47 48 49 46 49 48 47 46 56 57 63 68 77 74 72 75 75 74 69 61 56 57
82 93 99 98 96 68 55 52 56 63 58 45 49 65 52 57 50 47 45 44 44 45 45 47 46 42 41 47 48 61 70 68 68 70 73 74 72 78 77 80 73 64 64 64
100 90 98 99 98 96 50 48 53 51 79 90 81 81 64 48 62 47 42 49 44 42 48 51 49 46 44 45 50 66 69 70 70 67 68 71 76 81 82 78 78 75 74 75
98 98 98 98 98 98 87 51 48 87 86 97 82 74 61 54 48 46 42 41 46 49 49 45 41 40 39 45 64 65 69 70 66 76 77 79 80 84 81 81 78 83 84 71
82 96 97 99 99 97 48 42 62 66 66 76 74 64 57 49 40 44 40 43 44 47 49 48 42 38 36 61 67 70 66 65 80 83 85 88 89 86 86 86 87 86 86 87
92 84 93 94 88 57 51 67 64 58 79 52 57 57 56 40 31 34 34 35 37 40 40 48 54 50 46 72 70 72 64 79 85 88 91 92 91 88 89 90 89 85 87 81
87 93 96 98 95 96 87 85 60 50 45 45 46 52 47 38 28 31 33 35 38 62 65 74 75 76 75 79 80 70 84 86 88 89 91 92 91 90 91 81 79 84 82 81
69 93 96 92 65 49 85 74 60 52 43 42 40 44 41 40 32 30 52 63 58 64 76 79 77 77 71 78 76 83 88 88 88 88 89 89 86 88 86 80 77 75 75 74
45 48 53 85 48 79 62 48 52 52 46 44 48 49 54 49 44 51 62 59 63 70 81 81 80 80 75 83 85 90 90 88 87 88 86 81 79 80 76 75 75 68 68 66

GFSCGP_sfc_rhum_036.txt.gz
RH
36 41 44 33 29 26 28 31 33 29 27 31 32 30 25 25 27 28 29 31 35 35 37 41 47 59 72 72 70 72 73 71 69 68 68 63 62 55 59 58 58 52 59 61
43 48 32 28 29 32 30 34 35 30 28 33 33 32 27 25 26 24 24 29 35 38 39 41 50 60 73 70 64 67 70 67 63 62 55 56 55 53 48 50 47 46 49 52
40 35 28 29 36 35 36 38 36 35 36 36 38 40 31 27 23 24 25 26 32 37 40 44 51 64 72 70 63 60 60 58 55 48 48 47 50 52 50 50 47 42 41 47
38 30 33 36 35 33 39 34 32 37 44 54 39 59 40 33 32 26 31 36 38 39 38 42 49 62 71 72 58 58 56 52 50 50 53 54 56 52 50 48 49 48 48 49
40 39 40 42 35 31 39 38 40 46 53 64 58 59 46 34 34 33 43 42 42 40 40 44 48 56 61 66 68 58 58 55 53 56 53 47 45 49 49 48 46 49 52 53
42 44 38 38 41 38 40 45 48 54 58 84 57 56 54 37 33 36 42 43 41 41 42 43 48 50 60 64 65 62 54 49 46 45 44 46 46 44 45 48 50 51 53 54
43 45 44 41 48 46 44 54 80 85 89 87 52 65 48 39 36 36 39 43 43 42 42 46 49 52 57 61 60 55 48 44 42 42 43 44 42 41 44 45 49 52 54 55
53 61 45 43 44 52 52 52 83 85 90 83 65 68 52 47 44 43 39 40 42 43 42 46 47 47 52 54 52 43 43 41 40 41 42 41 40 41 43 45 51 54 55 54
46 53 45 43 43 44 55 61 46 70 86 89 66 52 39 52 52 51 46 44 44 43 44 44 44 45 48 50 46 43 41 40 40 41 42 39 38 39 44 46 50 55 54 46
43 58 51 48 43 45 50 47 70 73 90 93 68 55 50 61 51 52 50 46 43 42 44 42 40 40 42 42 41 39 37 38 41 41 41 39 41 44 46 49 54 53 51 51
47 58 67 53 56 53 56 57 54 54 73 88 85 60 38 41 43 49 48 44 44 44 42 42 38 38 39 42 41 38 37 39 43 43 43 49 50 46 48 54 56 55 56 53
51 58 83 60 52 49 50 51 50 71 73 64 81 53 39 41 41 43 46 46 44 44 43 42 39 37 38 40 40 37 39 44 47 45 48 52 48 50 53 52 54 59 55 56
54 80 92 84 72 63 57 51 44 43 69 62 75 59 44 45 45 44 48 50 47 46 45 43 40 36 34 36 40 38 39 45 48 47 53 54 54 54 54 55 58 60 58 57
52 75 72 72 61 58 68 57 48 50 67 66 58 48 56 49 50 49 48 48 48 47 46 44 42 37 34 35 39 38 38 43 50 49 56 58 57 57 57 60 61 61 60 58
54 91 73 58 49 56 63 62 53 56 51 61 50 48 40 46 48 45 47 50 50 50 49 46 47 43 35 36 38 37 36 41 44 47 56 58 62 58 61 65 66 64 62 57
66 86 72 75 60 74 75 63 59 54 52 49 46 46 40 39 38 46 46 49 51 52 50 48 48 48 41 36 37 37 36 46 46 49 54 57 63 64 72 73 71 68 64 63
89 90 97 89 75 83 95 85 70 62 50 50 59 46 45 41 41 41 43 49 49 51 50 53 51 50 46 40 37 39 39 52 56 64 72 69 68 72 76 75 74 72 72 67
87 95 99 96 97 98 71 65 62 66 60 52 51 55 66 50 42 44 45 50 51 55 57 56 54 53 60 60 56 54 58 60 67 69 75 76 74 76 85 83 80 78 74 72
78 90 98 98 94 76 69 74 76 81 74 57 56 50 66 69 59 60 58 53 55 57 56 57 58 58 62 68 67 74 76 68 65 72 75 76 78 84 86 85 84 78 77 80
99 85 97 99 98 94 72 68 67 63 77 73 68 63 73 63 63 64 59 61 58 57 66 69 69 65 67 70 70 74 80 75 75 80 76 80 83 83 83 82 86 84 86 74
98 98 98 98 97 97 88 68 70 81 73 91 88 78 68 62 57 64 62 60 64 67 68 66 57 57 61 66 74 77 82 78 80 86 86 88 85 82 82 88 91 86 87 86
95 97 98 98 99 97 73 63 74 72 69 89 82 73 66 54 59 61 57 60 60 60 62 58 55 54 60 73 72 79 76 77 85 86 86 89 90 88 90 88 94 92 90 89
96 95 98 98 97 73 78 75 68 59 79 52 70 69 60 48 47 51 56 56 57 56 56 55 56 54 58 80 77 77 77 84 87 87 88 92 94 93 93 91 93 96 94 92
98 98 99 99 97 93 95 91 79 68 56 48 49 64 58 47 44 42 48 47 48 68 70 82 74 74 75 85 81 80 84 86 86 87 92 95 94 96 96 94 92 91 92 92
98 99 98 96 96 96 94 97 92 79 56 41 46 54 54 42 39 41 60 63 60 69 82 78 75 76 72 84 83 91 89 86 87 90 94 96 95 95 96 95 95 92 93 86
69 96 96 96 94 98 90 84 88 83 66 50 47 52 58 46 45 54 66 65 67 73 88 85 86 85 84 86 90 93 90 86 89 93 94 95 94 96 95 94 96 72 71 67

GFSCGP_sfc_rhum_042.txt.gz
RH
46 45 47 42 35 36 39 44 43 40 33 37 38 37 32 32 38 38 40 42 43 42 46 52 61 90 93 95 95 93 89 79 74 74 72 68 67 60 60 61 63 66 68 69
52 52 39 39 41 39 43 45 46 40 37 37 38 40 36 37 35 32 31 36 37 47 50 56 70 93 94 94 94 93 86 83 76 70 63 57 53 52 50 55 58 58 58 56
54 42 43 40 47 45 48 48 50 41 45 44 49 48 39 34 36 33 33 28 32 40 46 55 68 91 94 95 95 90 84 76 70 57 50 46 45 46 50 56 58 58 56 59
52 43 39 51 47 42 50 40 40 43 51 56 54 55 51 40 38 38 32 33 32 40 44 50 62 89 91 93 95 89 82 73 56 52 49 50 59 58 55 59 61 60 58 59
47 50 50 47 45 40 45 44 46 50 58 69 69 66 54 48 45 37 30 37 34 43 44 51 57 69 89 90 91 92 82 64 54 50 49 52 56 53 56 59 56 57 59 59
46 48 44 43 45 40 46 51 58 71 69 80 56 57 59 48 39 40 40 44 39 45 44 46 56 75 91 92 90 86 72 58 53 52 50 49 50 50 53 55 55 59 60 62
51 48 49 44 46 51 50 50 71 84 90 72 72 76 42 43 42 38 35 41 50 49 47 56 74 80 88 86 83 76 67 61 58 53 49 46 45 42 43 47 48 53 54 59
55 59 50 47 42 49 55 52 74 77 88 79 74 80 57 48 41 50 46 47 54 55 51 58 65 72 81 81 79 70 68 59 60 54 50 46 43 41 41 44 47 49 51 54
61 59 58 54 50 36 58 62 52 73 93 94 74 61 51 50 47 48 49 59 59 56 56 59 69 74 79 78 75 68 64 57 58 53 49 46 42 42 43 52 55 56 60 49
44 60 65 55 51 57 50 50 70 85 87 94 78 77 57 58 48 42 47 58 57 55 58 60 64 69 72 72 72 65 57 54 56 53 47 44 42 44 49 52 58 55 57 55
43 59 75 58 63 61 61 63 65 64 81 84 88 62 54 40 42 42 44 50 58 53 54 56 57 62 66 69 65 59 55 54 56 52 48 51 56 52 51 53 56 55 57 56
49 59 83 69 65 63 70 62 62 78 77 86 84 50 45 50 46 48 44 48 58 51 51 53 54 58 66 64 60 56 52 52 52 49 48 50 51 54 55 54 53 59 53 59
52 72 87 80 74 73 67 61 47 59 78 66 75 54 51 50 52 47 47 52 58 56 56 56 56 55 56 59 56 51 49 49 53 50 51 56 55 53 52 54 55 58 59 60
48 72 65 62 58 63 70 66 60 51 66 64 60 44 55 50 42 44 52 56 60 56 54 54 53 50 50 52 51 47 45 46 54 50 52 54 55 53 54 57 57 58 58 59
51 80 62 53 63 60 67 57 60 62 52 64 46 48 39 42 43 43 45 57 62 59 57 54 53 51 48 48 47 43 42 46 49 49 53 54 58 57 61 62 62 62 61 57
68 78 69 77 63 72 67 68 59 57 54 54 49 49 41 45 48 52 47 54 60 57 53 51 50 49 47 44 46 41 40 49 50 49 53 55 60 62 65 65 66 65 64 67
86 81 92 95 75 86 95 74 67 58 51 53 61 46 55 47 44 44 50 54 53 53 52 52 51 49 45 41 41 41 40 48 54 60 68 67 64 65 67 68 68 66 65 62
96 94 97 97 93 99 72 59 52 58 54 51 50 48 56 51 44 47 54 56 53 48 50 52 51 47 45 42 42 42 49 57 59 67 71 68 68 66 70 72 69 69 67 67
80 90 99 98 96 78 66 78 75 77 68 54 56 53 49 48 66 49 61 48 43 48 48 49 50 49 46 43 45 50 58 61 60 65 68 66 65 69 75 75 72 71 75 84
93 88 98 99 98 95 55 70 65 72 78 60 63 60 59 70 75 55 49 59 59 58 64 69 70 66 51 48 50 59 63 64 63 62 62 66 68 75 77 71 80 86 87 74
98 100 97 97 98 96 81 75 69 85 69 88 82 70 75 69 57 74 76 74 80 79 80 78 67 59 55 53 61 64 66 65 63 74 74 71 72 78 76 82 87 86 81 85
97 98 98 98 99 97 72 77 75 71 85 91 83 78 80 79 74 78 79 82 82 85 85 82 80 79 70 68 64 74 74 76 80 79 79 81 81 80 86 86 90 87 84 84
98 94 99 98 92 85 91 84 82 75 80 63 77 62 68 67 74 74 79 79 80 79 80 83 80 84 88 85 81 87 83 85 85 83 82 83 86 88 87 86 90 92 90 86
98 98 98 98 98 95 97 94 90 66 62 61 62 63 55 58 59 68 70 73 74 86 83 88 88 90 90 90 88 87 88 87 84 84 90 91 88 93 93 92 89 90 91 91
97 97 96 97 97 96 97 98 97 98 93 80 57 58 51 54 55 62 74 81 81 79 84 86 85 86 87 88 86 92 90 89 90 91 93 94 94 93 96 97 95 91 95 86
98 94 96 92 86 90 87 90 94 98 87 63 47 52 55 50 49 70 78 80 83 80 87 83 86 83 90 89 88 90 90 88 89 91 94 95 96 97 98 98 99 83 81 78

GFSCGP_sfc_rhum_045.txt.gz
RH
47 44 47 43 37 39 40 46 45 42 37 38 39 39 32 34 44 43 42 43 43 42 39 51 56 78 94 96 97 96 95 93 84 86 87 83 74 67 69 70 74 73 73 76
50 49 39 41 45 41 46 50 47 43 41 40 42 41 37 39 37 35 35 36 37 38 50 50 60 88 95 95 96 96 94 90 85 86 76 70 60 61 57 61 62 63 68 67
52 41 46 40 49 46 49 49 50 44 47 48 49 49 40 34 38 38 36 29 30 34 39 44 57 80 93 96 96 94 93 88 86 70 59 55 57 53 56 57 57 56 58 62
52 46 47 52 50 44 54 46 46 49 53 60 57 60 49 42 37 40 32 33 32 35 38 42 51 75 90 93 96 94 91 87 74 61 61 62 73 68 60 56 56 61 58 59
44 54 49 55 49 44 50 49 50 54 64 69 68 66 49 54 43 36 32 32 37 38 40 44 48 58 77 93 96 95 92 82 65 61 57 59 62 63 63 57 52 59 61 60
49 51 49 45 49 44 48 52 61 76 69 78 55 56 49 47 40 38 36 35 40 44 47 45 48 61 84 95 96 96 91 76 64 57 54 55 54 57 59 58 53 61 64 64
55 50 50 44 49 53 50 51 71 75 87 70 76 69 35 37 39 36 30 37 46 61 55 57 63 73 93 95 96 95 88 74 64 58 53 51 50 48 50 49 50 57 61 62
53 51 50 47 42 48 55 51 70 72 82 72 78 80 55 50 43 45 46 47 56 56 56 57 60 70 89 91 94 92 85 74 65 61 54 49 46 45 43 44 48 47 49 56
60 58 59 55 50 37 58 64 51 62 92 92 59 55 48 50 50 49 48 52 55 54 60 63 69 72 86 91 91 90 82 73 67 60 53 49 44 42 43 50 52 54 61 50
44 56 67 59 55 61 52 53 70 83 77 89 72 72 52 50 46 42 47 46 56 59 62 66 75 80 88 87 86 85 78 71 67 62 56 50 45 42 43 49 53 54 56 51
45 57 76 65 65 63 65 66 67 66 77 84 89 54 58 42 43 43 43 43 51 58 60 65 73 81 86 88 86 78 73 70 69 62 57 56 53 46 49 49 52 52 49 53
51 60 84 70 72 70 72 67 56 73 73 87 85 48 47 49 44 46 41 43 57 58 58 62 68 75 81 83 81 75 70 66 66 61 56 56 53 53 50 49 50 53 49 52
52 69 86 76 78 74 70 64 49 60 79 66 81 52 55 62 57 47 45 49 53 62 62 64 66 67 72 76 76 74 68 63 65 60 58 58 56 53 50 51 52 51 51 53
54 74 69 58 65 69 76 70 61 54 73 62 58 44 52 51 49 45 45 50 58 61 61 62 62 60 61 66 68 67 65 59 62 58 59 60 58 52 49 51 54 53 54 54
63 91 80 62 59 66 70 69 64 62 53 64 48 49 38 41 45 42 42 49 57 59 63 60 59 59 56 60 62 61 60 57 57 56 58 57 58 53 55 59 57 58 58 53
75 94 84 85 70 69 73 70 65 61 54 52 48 49 44 46 58 51 46 47 54 56 58 57 56 58 55 53 56 56 55 56 57 55 57 55 61 61 64 62 61 60 60 64
85 97 100 97 84 84 97 76 65 61 54 54 63 48 54 42 43 41 39 55 52 51 49 54 56 54 52 49 49 53 52 56 61 62 66 68 65 66 67 66 64 60 63 62
93 94 98 97 95 98 73 54 56 59 55 52 51 46 45 45 41 47 55 52 52 50 51 54 54 52 52 50 49 50 56 61 64 68 72 69 66 68 71 70 66 66 66 68
80 87 99 97 93 81 75 70 72 76 65 52 52 47 44 43 62 46 62 51 48 54 52 50 52 54 55 53 50 55 61 63 64 68 71 68 66 72 73 78 81 83 81 86
90 93 98 99 98 95 57 58 58 68 74 52 58 54 53 62 75 52 64 69 68 67 67 68 72 68 61 56 55 60 62 64 64 65 67 66 69 76 82 82 86 90 88 88
97 99 98 97 98 97 82 75 71 82 70 86 83 68 66 69 60 78 75 73 80 81 80 82 74 66 63 60 64 66 68 66 63 69 72 74 75 82 82 90 93 94 94 95
97 99 98 98 99 97 78 82 75 74 84 89 81 79 80 80 75 78 78 82 84 86 85 83 80 73 69 76 73 78 73 80 79 79 80 83 87 94 95 95 95 94 94 94
98 92 93 98 98 87 83 79 83 79 80 72 79 63 76 74 76 79 81 84 85 86 88 88 87 87 82 87 79 80 89 86 88 92 96 96 97 98 97 97 95 95 92 88
97 97 98 96 98 91 94 91 82 63 64 68 71 76 61 59 67 71 77 80 81 92 90 94 88 89 94 94 92 94 95 96 96 96 96 94 94 95 94 89 88 86 87 85
92 96 97 95 98 95 94 95 87 92 91 78 61 60 55 56 60 66 77 86 86 82 87 92 92 93 95 90 91 93 92 87 90 91 93 92 91 90 93 93 91 86 93 82
97 95 94 94 90 91 89 84 95 96 89 83 48 50 53 54 60 74 79 81 84 82 90 86 89 90 92 89 90 93 93 90 89 92 93 92 92 95 93 94 100 79 79 74

GFSCGP_sfc_rhum_048.txt.gz
RH
51 42 46 42 40 48 41 51 55 44 40 43 43 43 37 35 44 42 43 45 42 41 34 46 53 62 87 94 97 97 99 94 85 85 86 90 83 75 77 81 86 86 86 87
49 48 40 41 42 42 48 59 49 45 45 44 45 43 37 39 40 37 33 37 38 38 44 47 54 66 86 91 96 97 97 91 82 83 88 85 75 70 65 70 71 76 79 78
52 42 47 41 50 47 49 49 51 45 52 56 54 52 45 38 42 40 39 31 32 34 34 42 53 57 80 92 96 96 96 94 81 76 66 66 63 62 64 65 69 62 65 72
54 49 47 54 51 44 54 47 47 51 56 64 61 61 52 39 36 39 32 37 34 32 36 39 46 56 71 80 92 94 95 94 90 64 66 77 82 82 78 65 62 60 60 66
46 56 56 56 49 45 50 52 54 63 66 71 73 66 51 57 43 35 28 33 36 35 40 40 46 45 56 73 94 95 95 94 86 70 70 72 79 73 72 62 57 58 59 64
50 62 50 46 53 49 52 53 62 78 69 77 62 55 49 48 39 40 32 30 35 44 47 47 50 55 66 90 96 97 96 95 79 72 73 69 73 67 67 62 58 57 59 65
59 55 54 49 53 55 53 52 64 66 87 72 76 68 32 36 32 40 33 32 41 50 51 54 58 68 87 96 95 97 96 95 80 72 70 71 67 60 60 56 55 54 56 63
53 47 53 49 44 52 56 52 68 61 77 63 81 77 53 48 44 42 44 43 54 53 53 56 60 70 89 92 94 96 96 94 80 73 69 67 59 56 57 54 52 47 44 51
60 55 61 56 53 38 58 61 51 53 91 86 51 51 42 46 47 48 50 52 52 56 56 58 64 74 91 92 93 94 95 92 78 72 65 63 56 54 54 50 47 48 49 50
44 55 69 66 56 62 54 53 66 78 73 87 62 64 50 42 42 41 46 46 46 59 55 61 68 78 90 91 91 93 92 90 78 72 66 61 57 51 49 48 48 50 48 50
44 55 71 67 65 62 61 66 69 64 72 75 83 42 56 39 37 38 38 44 50 52 55 58 68 82 90 93 94 94 94 89 80 72 68 66 57 50 49 51 49 46 46 53
51 61 77 67 73 72 73 64 63 71 72 87 84 44 47 49 46 50 44 44 60 57 57 60 68 85 93 95 95 94 92 87 81 72 67 65 57 51 51 48 47 50 45 51
56 71 86 74 78 77 73 68 54 64 78 66 79 46 54 62 52 51 50 49 49 57 61 63 72 82 88 92 92 90 88 84 81 72 68 67 61 54 51 49 47 46 47 50
58 77 80 73 64 71 78 73 61 49 78 55 59 39 47 56 51 45 45 47 51 53 59 63 68 70 74 81 85 86 84 78 79 72 70 68 63 56 51 50 49 47 49 51
65 85 80 63 63 72 73 73 68 56 49 64 46 46 36 36 39 37 39 47 49 55 60 62 62 65 66 72 76 78 78 76 73 72 71 68 65 58 52 54 54 52 52 49
75 96 86 90 74 82 85 76 66 64 55 52 49 49 33 32 47 52 47 44 44 52 55 54 59 64 63 60 64 68 71 75 72 70 71 67 66 62 62 61 59 56 55 59
91 91 99 94 82 90 98 91 73 66 56 54 66 48 42 42 40 40 41 50 49 49 44 54 57 57 56 55 55 62 64 71 74 74 75 73 71 69 66 62 60 57 58 57
94 98 98 94 94 98 69 66 64 68 62 57 54 50 46 44 43 48 53 54 50 53 52 52 53 56 56 59 58 59 70 72 74 76 77 75 72 70 69 65 61 58 59 61
81 81 98 97 86 70 72 74 74 82 74 58 58 51 47 44 61 45 52 57 50 53 60 60 61 61 61 65 61 69 75 73 74 75 76 74 71 75 71 71 66 63 69 69
79 77 97 100 98 90 56 46 66 71 82 55 59 56 55 62 70 51 72 71 76 73 77 77 77 74 69 71 70 72 73 76 76 74 74 72 72 76 75 71 76 79 78 84
98 98 97 96 98 94 78 77 71 83 70 86 83 69 81 67 59 80 80 79 83 84 85 83 78 72 72 72 76 79 80 78 82 81 78 77 76 78 76 83 86 92 94 95
95 97 95 98 98 97 78 80 73 72 85 89 82 80 78 78 75 83 83 83 86 85 84 81 76 74 77 80 79 84 82 86 87 86 86 85 86 87 88 91 96 96 96 96
99 98 99 98 98 93 81 78 77 73 77 70 74 63 68 74 79 82 81 84 87 88 88 87 84 84 85 89 86 86 95 89 88 87 89 90 92 94 94 95 97 97 96 96
84 95 96 92 95 94 89 87 80 68 63 63 66 64 59 65 75 81 82 84 86 92 94 95 88 91 96 94 90 90 90 88 87 91 94 96 96 97 97 97 96 97 97 96
75 94 95 95 91 94 91 94 84 79 78 70 69 62 59 72 74 74 82 86 83 87 90 93 92 93 95 94 96 96 97 95 97 97 98 98 97 96 97 97 95 96 95 90
97 93 92 80 89 85 80 84 84 94 94 73 49 55 58 59 64 79 83 81 83 86 90 93 94 91 93 94 95 96 95 93 94 96 96 96 96 96 95 94 98 76 77 71